Regional Weather Roundup
Issued by NWS Charleston, SC

Current Version | Previous Version | Graphics & Text | Print | Product List | Glossary On
Versions: 1 2 3 4 5 6 7 8 9 10 11 12 13 14 15 16 17 18 19 20 21 22 23 24 25 26 27 28 29 30 31 32 33 34 35 36 37 38 39 40 41 42 43 44 45 46 47 48 49 50
000 ASUS42 KCHS 190527 RWRCHS REGIONAL WEATHER ROUNDUP NATIONAL WEATHER SERVICE CHARLESTON SC 100 AM EDT THU OCT 19 2017 NOTE: "FAIR" INDICATES FEW OR NO CLOUDS BELOW 12,000 FEET WITH NO SIGNIFICANT WEATHER AND/OR OBSTRUCTIONS TO VISIBILITY. NOT ALL STATIONS ARE QUALITY CONTROLLED. USE DATA WITH CAUTION... ESPECIALLY DEWPOINT OBSERVATIONS. SCZ027-030-031-034>040-042>050-190600- ...SOUTHEAST SOUTH CAROLINA... CITY SKY/WX TMP DP RH WIND PRES REMARKS N CHARLESTON CLEAR 59 55 87 NE6 30.25F WATERFRONT PRK N/A 66 60 81 N10 30.10F JOHNS ISLAND FAIR 63 57 82 N7 30.24F PINOPOLIS N/A 64 57 77 NE12 30.17F MONCKS CORNER FAIR 59 52 77 NE3 30.26F SUMMERVILLE FAIR 54 52 94 CALM 30.27F BEAUFORT MCAS CLEAR 62 57 83 MISG 30.25F BEAUFORT ARPT FAIR 63 55 77 N9 30.24F HILTON HEAD IS CLEAR 66 57 72 N13 30.24F WALTERBORO CLEAR 52 50 93 CALM 30.27S ALLENDALE NOT AVBL ...SOUTHERN MIDLANDS AND PEE DEE... CITY SKY/WX TMP DP RH WIND PRES REMARKS GEORGETOWN FAIR 57 55 94 N5 30.26F KINGSTREE FAIR 50 48 93 CALM 30.27F ORANGEBURG CLEAR 51 47 86 CALM 30.28F BARNWELL N/A 50 46 87 CALM 30.27F AIKEN FAIR 45 41 87 CALM 30.31F MANNING FOG 50 50 100 MISG 30.27F VSB<1/4 COLUMBIA CLEAR 48 45 89 CALM 30.28F SUMTER CLEAR 52 42 67 NE6 30.26F FLORENCE CLEAR 54 46 74 N6 30.29S MYRTLE BEACH CLEAR 59 53 80 N7 30.27F N MYRTLE BEACH CLEAR 58 53 84 N8 30.25F $$ GAZ063-065-086>088-099>101-113>116-118-119-134>141-150-190600- ...SOUTHEAST GEORGIA... CITY SKY/WX TMP DP RH WIND PRES REMARKS SAVANNAH ARPT CLEAR 58 56 93 N7 30.25F HUNTER AAF CLEAR 62 57 82 N6 30.21F FORT STEWART CLEAR 60 55 86 N5 30.22F STATESBORO CLEAR 56 48 72 CALM 30.26S SYLVANIA CLEAR 56 50 80 NE3 30.27F CLAXTON FAIR 55 54 95 CALM 30.25F ...CSRA...CENTRAL AND FAR SOUTHEAST GEORGIA... CITY SKY/WX TMP DP RH WIND PRES REMARKS THOMSON CLEAR 42 40 93 CALM 30.33F AUGUSTA-BUSH CLEAR 48 44 86 CALM 30.28F AUGUSTA-DANIEL CLEAR 60 39 45 E6 30.28F SWAINSBORO FAIR 55 46 71 MISG 30.27S VIDALIA CLEAR 59 54 82 NE6 30.25F EASTMAN FAIR 51 45 78 CALM 30.28S HAZLEHURST FAIR 61 49 66 CALM 30.23F ALMA CLEAR 62 56 80 VRB3 30.23F WAYCROSS CLEAR 62 59 91 NE3 30.22F JESUP FAIR 63 57 82 N5 30.23F BAXLEY FAIR 59 57 94 NE6 30.23F BRUNSWICK CLEAR 64 61 88 N6 30.21S SAINT SIMONS CLOUDY 70 65 84 N14 30.19F $$ SCZ027-028-034-036>038-045-046-048>050-GAZ119-141-190600- ...LAKE AND SUPPLEMENTAL COASTAL OBSERVATIONS... STATION/POSITION TIME TEMP WIND PRES WAVE SWELL AIR SEA DIR/SP/G HT/PER HT/PER/DIR (UTC) (F) (DEG/KT/KT) (MB) (FT/S) (FT/S/D) WINYAH BAY 0430 61 360/ 6 1025.0S LAKE MURRAY 0430 55 CALM / 1 1025.1F ACE BASIN NERRS 0445 62 10/ 2 1025.0S FORT PULASKI 0500 66 74 20/ 11/ 14 1024.0 SAPELO ISLAND 0500 67 20/ 9 1023.0 $$ ANZ835-935-AMZ111-154-330-350-352-354-370-450-454-472-190600- ...C-MAN AND BUOY OBSERVATIONS... STATION/POSITION TIME TEMP WIND PRES WAVE SWELL AIR SEA DIR/SP/G HT/PER HT/PER/DIR (UTC) (F) (DEG/KT/KT) (MB) (FT/S) (FT/S/D) BUOY 41004 0500 74 79 30/ 19/ 25 1022.0 BUOY 41008 0450 74 78 50/ 19/ 23 1021.7F 6/ 7 3/100/10 FOLLY BEACH CMAN 0500 65 360/ 11/ 13 1024.4F CAPERS NEARSHORE 0508 64 74 20/ 16/ 21 1023.3F FRIPP NEARSHORE 0508 69 30/ 17/ 21 N/A STATION/POSITION TIME TEMP WIND PRES WAVE SWELL AIR SEA DIR/SP/G HT/PER HT/PER/DIR (UTC) (F) (DEG/KT/KT) (MB) (FT/S) (FT/S/D) 5E ST. MARYS GA 0500 78 N/A 7/ 7 2/110/11 FRYING PAN BUOY 0510 72 76 30/ 19/ 23 1022.6 BUOY 41025 0450 74 81 110/ 16/ 17 1024.0F 5/ 9 3/120/ 9 CAPE LOOKOUT NC 0500 64 360/ 12/ 15 1024.1F BUOY 41002 0450 77 80 70/ 19/ 21 1020.0F 9/ 7 2/ 60/13 BUOY 41010 NOT AVBL ST AUGUSTINE FL 0500 79 78 50/ 17/ 18 1020.6F $$

USA.gov is the U.S. government's official web portal to all federal, state and local government web resources and services.